Flag for U.S.A. Weather past 2 weeks in Glendale, Arizona, U.S.A.

Now
81 °F

Clear.


Feels Like: 83 °F
Forecast: 78 / 94 °F
Wind: 6 mph from Southeast

Location: Phoenix-Deer Valley Municipal Airport

Current Time: Sep 19, 2014 at 5:13:05 AM

Latest Report: Sep 19, 2014 at 4:53 AM


Visibility: 10 mi

Pressure: 29.72 "Hg

Humidity: 62%

Dew point: 67 °F

Location of GlendaleLocation

Historic Weather in Glendale — Graph

°F

Glendale temperature yesterday

Maximum temperature yesterday: 92 °F (at 2:53 PM)
Minimum temperature yesterday: 76 °F (at 4:53 AM)
Average temperature yesterday: 85 °F

Past Weeks' High & Low Weather Summary

 TemperatureHumidityPressure
High102 °F (Sep 4, 3:53 PM)100% (Sep 8, 8:03 AM)29.94 "Hg (Sep 8, 8:03 AM)
Low70 °F (Sep 8, 3:53 AM)17% (Sep 4, 3:53 PM)29.54 "Hg (Sep 8, 8:03 AM)
Average86 °F47%29.76 "Hg
* Reported Sep 4 3:53 AM — Sep 19 3:53 AM, Glendale, Weather by CustomWeather, © 2014

Note: Actual official high and low records may vary slightly from our data, if they occured in-between our weather recording intervals... More about our weather records

Advertising

Glendale weather history for previous 24 hours

 ConditionsComfort  
Time TempWeatherWind HumidityBarometerVisibility
3:53 AM
Sep 19
82 °FPartly cloudy.No wind60%29.70 "Hg10 mi
2:53 AM82 °FPassing clouds.No wind60%29.70 "Hg10 mi
1:53 AM83 °FOvercast.No wind57%29.70 "Hg10 mi
12:53 AM84 °FPassing clouds.No wind55%29.70 "Hg10 mi
11:53 PM
Sep 18
84 °FClear.No wind53%29.70 "Hg10 mi
10:53 PM85 °FPassing clouds.5 mph50%29.70 "Hg10 mi
9:53 PM86 °FClear.No wind46%29.69 "Hg10 mi
8:53 PM87 °FClear.5 mph45%29.68 "Hg10 mi
7:53 PM89 °FClear.6 mph41%29.67 "Hg10 mi
6:53 PM90 °FClear.6 mph39%29.65 "Hg10 mi
5:53 PM91 °FSunny.6 mph37%29.63 "Hg10 mi
4:53 PM92 °FSunny.7 mph36%29.63 "Hg10 mi
3:53 PM92 °FPassing clouds.9 mph36%29.64 "Hg10 mi
2:53 PM92 °FSunny.3 mph36%29.65 "Hg10 mi
1:53 PM90 °FSunny.5 mph38%29.66 "Hg10 mi
12:53 PM89 °FSunny.No wind39%29.68 "Hg10 mi
11:53 AM88 °FSunny.No wind40%29.71 "Hg10 mi
10:53 AM86 °FSunny.3 mph43%29.72 "Hg10 mi
9:53 AM84 °FSunny.8 mph46%29.74 "Hg10 mi
8:53 AM83 °FSunny.5 mph48%29.74 "Hg10 mi
7:53 AM79 °FSunny.No wind56%29.74 "Hg10 mi
6:53 AM77 °FSunny.No wind62%29.72 "Hg10 mi
5:53 AM76 °FClear.6 mph64%29.70 "Hg10 mi
Weather by CustomWeather, © 2014

See weather overviewHow to use our weather pages